Weather Service Report


147 
ASUS45 KTFX 230104
RWRMT 
MONTANA HOURLY WEATHER ROUNDUP
NATIONAL WEATHER SERVICE GREAT FALLS MT
604 PM MST MON DEC 22 2014

NOTE: "FAIR" INDICATES FEW OR NO CLOUDS BELOW 12000 FEET WITH NO
SIGNIFICANT WEATHER AND/OR OBSTRUCTIONS TO VISIBILITY.

* THESE STATIONS ARE NOT UNDER NWS QUALITY CONTROL. THEY DO NOT
   REPORT WEATHER SUCH AS PRECIPITATION OR FOG.

MTZ001>007-043-230200-
WEST OF THE DIVIDE
CITY           SKY/WX    TMP DP  RH WIND       PRES   REMARKS
KALISPELL      MOCLDY    30  27  89 SW3       30.14R 
MISSOULA       CLOUDY    36  25  64 NW8       30.18R WCI  30 
BUTTE          CLOUDY    28  18  66 W7        30.09R WCI  21 
MULLAN PASS    CLOUDY    25  21  85 VRB6      30.14R WCI  18 
* ESSEX        N/A       33  28  82 SE2        N/A   
* LINCOLN      N/A       31  24  75 SW5G14     N/A   WCI  26 
* LOOKOUT PASS N/A       31  25  78 NE1        N/A   
* POLSON       N/A       34  22  61 W3         N/A   
* RONAN APT    MOCLDY    36  28  73 N/A        N/A   
* SEELEY LAKE  N/A       25  24  96 N/A        N/A   
* THOMP F APT  PTCLDY    24  16  71 N8G23      N/A   WCI  15 
$$

MTZ008-052>055-230200-
SOUTHWEST MONTANA
CITY           SKY/WX    TMP DP  RH WIND       PRES   REMARKS
BOZEMAN        CLOUDY    30  27  89 NE3       30.08R 
DILLON         MOCLDY    28  18  66 NW12      30.08R WCI  18 
* W YELLOWSTON MOCLDY    17  14  88 N/A        N/A   
* THREE FORKS  MOCLDY    36  25  64 N/A        N/A   
* BOULDER HILL N/A       29  11  47 NE8        N/A   WCI  21 
* MONIDA PASS  N/A       23  12  63 NW27G34    N/A   WCI   6 
* RAYNOLDS PAS N/A       22  21  96 N14G20     N/A   WCI   9 
* WHITEHALL    N/A       32  15  49 NW3G13     N/A   
* WISE RIVER   N/A       25  17  72 NW11G19    N/A   WCI  14 
$$

MTZ009>010-012-014-046-048-049-054-230200-
EAST SLOPES AND CENTRAL MONTANA
CITY           SKY/WX    TMP DP  RH WIND       PRES   REMARKS
CUT BANK       PTCLDY    28  23  81 W9        30.06R WCI  19 
GREAT FALLS    CLOUDY    34  27  76 NW9       30.06R WCI  27 
HELENA         MOCLDY    36  21  54 W10       30.07R WCI  29 
MALMSTROM AFB  CLOUDY    36  27  70 NW12      30.08R WCI  28 
* DEARBORN     N/A       37  21  52 SW2        N/A   
* EAST GLACIER N/A       29  20  69 NW8        N/A   WCI  21 
* MONARCH      N/A       27  21  78 NW20G25    N/A   WCI  13 
* PENDROY      N/A       28  21  75 W11        N/A   WCI  18 
* ROGERS PASS  N/A       27  22  81 SE1G6      N/A   
* SWEET GRASS  N/A       30  23  75 NW11       N/A   WCI  21 
$$

MTZ011-013-016-021-035-040-045-047-050-051-230200-
NORTH CENTRAL MONTANA
CITY           SKY/WX    TMP DP  RH WIND       PRES   REMARKS
HAVRE          MOCLDY    30  25  82 SW10      30.03R WCI  21 
LEWISTOWN      CLOUDY    30  23  75 W7        30.01R WCI  23 
* N BAR RANCH  MOCLDY    32  21  64 NW30G39   29.93R WCI  18 
* CHESTER      N/A       32  23  69 NW7        N/A   WCI  25 
* DENTON       N/A       32  22  67 W11        N/A   WCI  23 
* GEYSER       N/A       32  24  72 W9         N/A   WCI  24 
* JUDITH GAP   N/A       29  22  75 N19G26     N/A   WCI  16 
* LOMA         N/A       36  27  70 W11G16     N/A   WCI  28 
$$

MTZ017>020-022>027-061-062-230200-
NORTHEAST MONTANA
CITY           SKY/WX    TMP DP  RH WIND       PRES   REMARKS
GLASGOW        CLOUDY    28  21  75 N17       29.90R WCI  16 
GLENDIVE       CLOUDY    25  19  78 NW22      29.84R WCI  10 
JORDAN         PTCLDY    36  28  73 NW21G37   29.89R WCI  25 
SIDNEY         CLOUDY    27  21  78 NW15      29.85R WCI  15 
WOLF POINT     CLOUDY    27  19  72 NW12      29.91R WCI  16 
* BEAVER HILL  N/A       22  20  92 NW19       N/A   WCI   7 
* CIRCLE       N/A       28  24  85 NW9G19     N/A   WCI  19 
* LINDSAY DVD  N/A       22  20  92 NW27G32    N/A   WCI   5 
* NAVAJO       N/A       22  19  88 N17        N/A   WCI   8 
* SACO         N/A       33  27  79 NW21G27    N/A   WCI  21 
$$

MTZ028>042-056>058-230200-
SOUTHCENTRAL AND SOUTHEAST MONTANA
CITY           SKY/WX    TMP DP  RH WIND       PRES   REMARKS
BAKER          LGT SNOW  25  21  85 NW18      29.79R VSB 1 3/4 WCI  11 
BILLINGS       MOCLDY    36  21  54 NW16      29.97R WCI  26 
LIVINGSTON     LGT SNOW  30  25  82 W8        30.04R WCI  22 
MILES CITY     CLOUDY    34  28  79 NW17      29.85R WCI  23 
* LAUREL APT   MOCLDY    36  16  44 W13G22     N/A   WCI  27 
* ROUNDUP APT  MOCLDY    36  18  48 W14        N/A   WCI  27 
* ALZADA       N/A       30  27  89 W20        N/A   WCI  17 
* HYSHAM       N/A       35  19  52 NW6G12     N/A   WCI  30 
* REED POINT   N/A       36  23  59 NW7        N/A   WCI  30 
* ROSCOE HILL  N/A       30  16  56 SW4G16     N/A   
$$

REGIONAL REPORTS...DAKOTAS
CITY           SKY/WX    TMP DP  RH WIND       PRES   REMARKS
WILLISTON      CLOUDY    27  23  85 N16       29.81R WCI  15 
DICKINSON      LGT SNOW  25  21  85 NW21      29.70R VSB 1 1/2 WCI  10 
BEACH          LGT SNOW  23  23 100 NW22G28   29.79R VSB 2 1/2 WCI   8 
CROSBY         CLOUDY    25  25 100 N5        29.81R WCI  19 
WATFORD CITY   FOG       25  25 100 N/A       29.77R 
BISMARCK       CLOUDY    30  28  92 N17G23    29.66R WCI  18 
GRAND FORKS    LGT RAIN  36  36 100 NE8       29.66R WCI  30 
FARGO          LGT RAIN  37  34  89 E8        29.61R WCI  31 
BUFFALO SD     MOCLDY    27  21  78 NW30G40   29.63R WCI  11 
RAPID CITY     LGT SNOW  30  27  89 NW44G53   29.61R VSB 1 1/2 WCI  12 
$$

REGIONAL REPORTS...WYOMING/IDAHO/WASHINGTON
CITY           SKY/WX    TMP DP  RH WIND       PRES   REMARKS
GILLETTE       LGT SNOW  34  21  59 NW22G31   29.78R WCI  22 
SHERIDAN       CLOUDY    36  25  64 NW25G33   29.89R WCI  24 
CODY           CLOUDY    30  19  64 NE14      29.95R WCI  19 
YELLOWSTONE LA PTCLDY    14  10  84 W6        29.98R WCI   5 
SALMON         CLOUDY    36  18  48 CALM      30.17R 
MULLAN PASS    CLOUDY    25  21  85 VRB6      30.14S WCI  18 
SAND POINT     PTCLDY    36  28  73 SW5       30.22R WCI  32 
SPOKANE        PTCLDY    36  27  70 W6        30.25R WCI  31 

$$


Return to Home page


Western Regional Climate Center, wrcc@dri.edu